Regional Weather Roundup
Issued by NWS

Home | Current Version | Previous Version | Graphics & Text | Print | Product List | Glossary Off
Versions: 1 2 3 4 5 6 7 8 9 10 11 12 13 14 15 16 17 18 19 20 21 22 23 24 25 26 27 28 29 30 31 32 33 34 35 36 37 38 39 40 41 42 43 44 45 46 47 48 49 50

000
ASUS43 KMKX 090021
RWRWI

WISCONSIN REGIONAL WEATHER ROUNDUP
NATIONAL WEATHER SERVICE MILWAUKEE/SULLIVAN WI
600 PM CST THU DEC 08 2016

NOTE: "FAIR" INDICATES FEW OR NO CLOUDS BELOW 12,000 FEET WITH NO
SIGNIFICANT WEATHER AND/OR OBSTRUCTIONS TO VISIBILITY.

WIZ001-002-006>008-014>016-023>028-090100-
NORTHWEST WISCONSIN

CITY           SKY/WX    TMP DP  RH WIND       PRES   REMARKS
SUPERIOR ARPT  PTCLDY    22  12  66 NW8       30.41R WCI  12
6HR MIN TEMP:  22; 6HR MAX TEMP:  27;

ASHLAND        CLOUDY    23  17  78 NW8       30.35S WCI  14
6HR MIN TEMP:  22; 6HR MAX TEMP:  29; 6HR PCP:  0.01;

HAYWARD        PTCLDY    21  12  68 VRB5      30.35R WCI  15
6HR MIN TEMP:  21; 6HR MAX TEMP:  24; 6HR PCP: TRACE;

SIREN          CLOUDY    23  14  69 NW8       30.40S WCI  14
6HR MIN TEMP:  23; 6HR MAX TEMP:  26;

CUMBERLAND     CLOUDY    21  14  73 NW13G18   30.37R WCI   9
RICE LAKE      CLOUDY    23  16  72 NW6       30.39R WCI  16
6HR MIN TEMP:  23; 6HR MAX TEMP:  25;

CHETEK         CLOUDY    24  16  72 NW5       30.38R WCI  18
6HR MIN TEMP:  24; 6HR MAX TEMP:  24;

LADYSMITH      CLOUDY    24  17  72 NW9       30.35R WCI  15
6HR MIN TEMP:  24; 6HR MAX TEMP:  25;

EAU CLAIRE     FLURRIES  23  18  81 NW9       30.38S WCI  13
6HR MIN TEMP:  23; 6HR MAX TEMP:  25; 6HR PCP: TRACE;

MENOMONIE      CLOUDY    24  17  74 W15       30.40R WCI  11
6HR MIN TEMP:  24; 6HR MAX TEMP:  26;

NEW RICHMOND   FLURRIES  22  14  72 W9        30.42R WCI  12
6HR MIN TEMP:  22; 6HR MAX TEMP:  25;

OSCEOLA        FLURRIES  23  15  72 W9        30.46R WCI  13
6HR MIN TEMP:  23; 6HR MAX TEMP:  25;

$$

WIZ003>005-009-010-017-018-090100-
NORTH CENTRAL WISCONSIN

CITY           SKY/WX    TMP DP  RH WIND       PRES   REMARKS
MANITOWISH WTR LGT SNOW  20  19  95 NW9       30.24R WCI   9
6HR MIN TEMP:  20; 6HR MAX TEMP:  25;

ARBOR VITAE    CLEAR     22  17  83 NW9       30.24R WCI  11
6HR MIN TEMP:  22; 6HR MAX TEMP:  27;

WOODRUFF       CLEAR     22  17  83 NW9       30.24R WCI  11
6HR MIN TEMP:  22; 6HR MAX TEMP:  27;

RHINELANDER    PTCLDY    22  16  78 NW8G17    30.24R WCI  12
6HR MIN TEMP:  22; 6HR MAX TEMP:  27; 6HR PCP:  0.01;

EAGLE RIVER    FLURRIES  22  17  82 NW8       30.22R WCI  12
6HR MIN TEMP:  21; 6HR MAX TEMP:  27;

LAND O LAKES   LGT SNOW  23  20  90 NW6       30.22S WCI  15
6HR MIN TEMP:  22; 6HR MAX TEMP:  27;

PHILLIPS       CLOUDY    21  15  76 W6        30.28R WCI  14
6HR MIN TEMP:  21; 6HR MAX TEMP:  24;

TOMAHAWK       CLOUDY    22  16  77 NW10      30.27R WCI  11
6HR MIN TEMP:  22; 6HR MAX TEMP:  27;

MEDFORD        CLOUDY    21  15  75 NW9       30.29R WCI  11
6HR MIN TEMP:  21; 6HR MAX TEMP:  23;

MERRILL        FLURRIES  22  17  80 NW9       30.28R WCI  12
6HR MIN TEMP:  22; 6HR MAX TEMP:  27;

$$

WIZ029-030-035-036-043>047-090100-
CENTRAL WISCONSIN

CITY           SKY/WX    TMP DP  RH WIND       PRES   REMARKS
WAUSAU         MOCLDY    21  15  78 W10       30.27R WCI  10
6HR MIN TEMP:  21; 6HR MAX TEMP:  26;

MOSINEE        PTCLDY    21  16  79 W10       30.29R WCI  10
MARSHFIELD     CLOUDY    21  15  78 NW12      30.30R WCI   9
6HR MIN TEMP:  20; 6HR MAX TEMP:  24; 6HR PCP: TRACE;

STEVENS POINT  CLOUDY    21  13  71 W8        30.31R WCI  11
6HR MIN TEMP:  21; 6HR MAX TEMP:  24;

WAUPACA        CLEAR     26  16  65 W9G16     30.30R WCI  16
6HR MIN TEMP:  26; 6HR MAX TEMP:  31;

WAUTOMA        PTCLDY    23  16  74 W12       30.32R WCI  12
6HR MIN TEMP:  23; 6HR MAX TEMP:  26; 6HR PCP: TRACE;

WISC RAPIDS    CLOUDY    22  15  75 W7        30.33R WCI  13
6HR MIN TEMP:  22; 6HR MAX TEMP:  26; 6HR PCP: TRACE;

CAMP DOUGLAS   CLOUDY    23  18  80 W9        30.36R WCI  13
                                      6HR PCP: TRACE;

$$

WIZ011>013-019>022-031-037>040-048>050-090100-
NORTHEAST WISCONSIN

CITY           SKY/WX    TMP DP  RH WIND       PRES   REMARKS
ANTIGO         LGT SNOW  22  21  95 W13       30.24R WCI  10
6HR MIN TEMP:  22; 6HR MAX TEMP:  26;

SHAWANO        FLURRIES  29  20  67 W10       30.27R WCI  20
6HR MIN TEMP:  29; 6HR MAX TEMP:  32;

OCONTO         MOCLDY    26  21  83 W5        30.25R WCI  20
6HR MIN TEMP:  26; 6HR MAX TEMP:  33; 6HR PCP:  0.01;

STURGEON BAY   CLOUDY    29  21  72 NW13G20   30.22R WCI  19
6HR MIN TEMP:  29; 6HR MAX TEMP:  33; 6HR PCP: TRACE;

GREEN BAY      MOCLDY    28  19  69 W15       30.26R WCI  16
6HR MIN TEMP:  28; 6HR MAX TEMP:  34; 6HR PCP: TRACE;

MANITOWOC      MOCLDY    29  18  63 W16G25    30.25R WCI  17
6HR MIN TEMP:  28; 6HR MAX TEMP:  31; 6HR PCP: TRACE;

APPLETON       PTCLDY    25  14  63 W14       30.25R WCI  13
CLINTONVILLE   PTCLDY    27  18  69 W13       30.28R WCI  16
OSHKOSH        MOCLDY    24  15  68 W13       30.29R WCI  12
6HR MIN TEMP:  24; 6HR MAX TEMP:  27;

$$

WIZ032>034-041-042-053>061-090100-
SOUTHWEST WISCONSIN

CITY           SKY/WX    TMP DP  RH WIND       PRES   REMARKS
LA CROSSE      CLOUDY    26  16  65 W13G21    30.41R WCI  15
6HR MIN TEMP:  25; 6HR MAX TEMP:  27; 6HR PCP: TRACE;

SPARTA         FLURRIES  24  18  77 W7        30.39R WCI  16
6HR MIN TEMP:  23; 6HR MAX TEMP:  25;

VIROQUA        CLOUDY    22  19  88 W8        30.36S WCI  12
6HR MIN TEMP:  21; 6HR MAX TEMP:  22;

BOSCOBEL       CLOUDY    25  16  68 W7        30.42R WCI  17
6HR MIN TEMP:  23; 6HR MAX TEMP:  26;

PRAIRIE DU CHI FLURRIES  23  15  71 W14       30.44R WCI  11
6HR MIN TEMP:  23; 6HR MAX TEMP:  25;

PLATTEVILLE    CLOUDY    22  18  85 W13       30.40R WCI  10
6HR MIN TEMP:  21; 6HR MAX TEMP:  23;

$$

WIZ056-057-062-063-064-067-068-090100-
SOUTH CENTRAL WISCONSIN

CITY           SKY/WX    TMP DP  RH WIND       PRES   REMARKS
REEDSBURG      FLURRIES  23  17  76 W8        30.36R WCI  14
6HR MIN TEMP:  22; 6HR MAX TEMP:  23;

BARABOO/DELLS  FLURRIES  23  17  76 W8        30.35R WCI  14
6HR MIN TEMP:  21; 6HR MAX TEMP:  23;

LONE ROCK      CLOUDY    24  16  71 W12       30.40R WCI  13
6HR MIN TEMP:  22; 6HR MAX TEMP:  24; 6HR PCP: TRACE;

MINERAL POINT  FLURRIES  23  21  93 W10       30.37R WCI  12
MADISON        FLURRIES  23  15  71 W7        30.35S WCI  15
6HR MIN TEMP:  21; 6HR MAX TEMP:  23; 6HR PCP: TRACE;

MIDDLETON      CLOUDY    24  19  80 W7        30.36S WCI  16
6HR MIN TEMP:  23; 6HR MAX TEMP:  25;

WATERTOWN      PTCLDY    23  17  80 W10G16    30.32R WCI  12
6HR MIN TEMP:  22; 6HR MAX TEMP:  24;

MONROE         FLURRIES  23  19  86 NW10      30.37R WCI  12
JANESVILLE     FLURRIES  25  18  74 W12       30.36R WCI  14
$$

WIZ051-052-058>065-066-070>072-090100-
SOUTHEAST WISCONSIN

CITY           SKY/WX    TMP DP  RH WIND       PRES   REMARKS
MILWAUKEE      PTCLDY    25  15  66 W14       30.31R WCI  13
6HR MIN TEMP:  24; 6HR MAX TEMP:  26; 6HR PCP: TRACE;

WAUKESHA       PTCLDY    21  16  79 W14G20    30.31R WCI   8
MILWAUKEE/TIMM CLEAR     23  14  68 W13       30.31  WCI  11
RACINE         CLEAR     24  15  68 W12G23    30.32S WCI  13
6HR MIN TEMP:  22; 6HR MAX TEMP:  25; 6HR PCP: TRACE;

BURLINGTON     FLURRIES  28  22  77 W12G21    30.34R WCI  18
6HR MIN TEMP:  26; 6HR MAX TEMP:  28;

KENOSHA        CLOUDY    24  15  68 W18G24    30.32S WCI  10
6HR MIN TEMP:  21; 6HR MAX TEMP:  25; 6HR PCP: TRACE;

FOND DU LAC    CLOUDY    25  14  63 W10       30.29R WCI  15
6HR MIN TEMP:  25; 6HR MAX TEMP:  27; 6HR PCP: TRACE;

SHEBOYGAN      PTCLDY    26  16  65 W15G23    30.26R WCI  14
6HR MIN TEMP:  25; 6HR MAX TEMP:  28;

WEST BEND      CLEAR     23  19  86 W13G20    30.28R WCI  11
JUNEAU         CLEAR     22  16  77 W9        30.32R WCI  11
6HR MIN TEMP:  21; 6HR MAX TEMP:  23;

$$

LSZ147-162-090100-
LAKE SUPERIOR

STATION/POSITION TIME  TEMP    WIND        PRES    WAVE
                       AIR SEA DIR/SP/G            HT/PER
                 (UTC) (F)     (DEG/KT/KT) (MB)    (FT/S)
DEVILS ISLAND    0000   24     310/ 19/ 21 1029.0R
PORT WING        2330   27     330/ 18/ 21 1028.1R
SAXON HARBOR     2330   28     330/ 19/ 23 1026.8R
$$

LMZ867-665-643>646-090100-
LAKE MICHIGAN

STATION/POSITION TIME  TEMP    WIND        PRES    WAVE
                C1F1C2F2C3F3C4F4C5F5C6F6C7F7C8M1C9M2Ca!



USA.gov is the U.S. government's official web portal to all federal, state and local government web resources and services.